Regional Weather Roundup
Issued by NWS Green Bay, WI

Home | Current Version | Previous Version | Text Only | Print | Product List | Glossary On
Versions: 1 2 3 4 5 6 7 8 9 10 11 12 13 14 15 16 17 18 19 20 21 22 23 24 25 26 27 28 29 30 31 32 33 34 35 36 37 38 39 40 41 42 43 44 45 46 47 48 49 50
000
ASUS43 KGRB 230600
RWRGRB

NORTH-CENTRAL AND NORTHEAST WISCONSIN REGIONAL WEATHER ROUNDUP
NATIONAL WEATHER SERVICE GREEN BAY WI
100 AM CDT SAT MAY 23 2015

WIZ005-009-010>012-018-019-230700-
NORTH CENTRAL WISCONSIN

CITY           SKY/WX    TMP DP  RH WIND       PRES   REMARKS
IRONWOOD       CLEAR     57  28  33 S6        30.16S
MANITOWISH WTR NOT AVBL
ARBOR VITAE    NOT AVBL
EAGLE RIVER    NOT AVBL
LAND O LAKES   NOT AVBL
RHINELANDER    CLEAR     39  35  86 CALM      30.24S
PHILLIPS       NOT AVBL
ANTIGO         NOT AVBL
TOMAHAWK       NOT AVBL
MERRILL        NOT AVBL
$$

WIZ013-073-230700-
NORTHEAST WISCONSIN

CITY           SKY/WX    TMP DP  RH WIND       PRES   REMARKS
IRON MOUNTAIN  CLEAR     38  32  79 CALM      30.24S
MARINETTE      CLEAR     45  28  53 SE3       30.26S
$$

WIZ017-030-035>037-045-230700-
CENTRAL WISCONSIN

CITY           SKY/WX    TMP DP  RH WIND       PRES   REMARKS
MEDFORD        NOT AVBL
WAUSAU         CLEAR     47  40  76 CALM      30.22S
MOSINEE        NOT AVBL
MARSHFIELD     PTCLDY    51  39  63 CALM      30.23F
WISC RAPIDS    PTCLDY    53  36  52 S7        30.25S
STEVENS POINT  NOT AVBL
WAUPACA        NOT AVBL
SHAWANO        NOT AVBL
CLINTONVILLE   NOT AVBL
$$

WIZ038-039-048-051-230700-
FOX VALLEY

CITY           SKY/WX    TMP DP  RH WIND       PRES   REMARKS
NWS GREEN BAY  CLEAR     45  32  60 CALM      30.26S
APPLETON       NOT AVBL
OSHKOSH        PTCLDY    48  28  46 S3        30.27R
FOND DU LAC    MOCLDY    45  28  51 S5        30.27S
$$

WIZ022-050-052-230700-
EAST CENTRAL WISCONSIN

CITY           SKY/WX    TMP DP  RH WIND       PRES   REMARKS
STURGEON BAY   CLEAR     46  25  42 S7        30.29F
MANITOWOC      NOT AVBL
SHEBOYGAN      PTCLDY    40  30  67 SW5       30.27S
$$

LMZ563-521-522-541>543-230700-
LAKESHORE

STATION/POSITION TIME  TEMP    WIND        PRES    VSBY  WAVE
                       AIR SEA DIR/SP/G                  HT/PER
                 (UTC) (F)     (DEG/KT/KT) (MB)    (MI)  (FT/S)
SHEBOYGAN LKSHOR 0500   49     220/  9/ 10 1025.7F
KEWAUNEE LKSHORE 0500   47     180/  5/  7 1024.3S
NORTHPORT PIER   0500   46     200/  3/  6 1025.4S
N MID LAKE BUOY  0450   40 36  220/  6/  6 1026.0F         0
SISTER BAY LKSHO 0502   45        CALM       N/A
CHAMBERS ISLAND  0500   40     120/  2/  2 1025.4S
MENOMINEE LKSHOR 0500   50     160/  5/  9 1025.3F
$$


USA.gov is the U.S. government's official web portal to all federal, state and local government web resources and services.